TimeEDT,TemperatureF,Dew PointF,Humidity,Sea Level PressureIn,VisibilityMPH,Wind Direction,Wind SpeedMPH,Gust SpeedMPH,PrecipitationIn,Events,Conditions,WindDirDegrees,DateUTC
12:56 AM,77.0,72.0,84,30.14,8.0,ENE,4.6,-,N/A,,Clear,60,2013-07-18 04:56:00
1:56 AM,75.9,72.0,87,30.14,6.0,Calm,Calm,-,N/A,,Clear,0,2013-07-18 05:56:00
2:56 AM,75.9,72.0,87,30.13,6.0,Calm,Calm,-,N/A,,Mostly Cloudy,0,2013-07-18 06:56:00
3:56 AM,75.0,72.0,90,30.12,5.0,Calm,Calm,-,N/A,,Scattered Clouds,0,2013-07-18 07:56:00
4:56 AM,73.9,71.1,91,30.12,6.0,NW,3.5,-,N/A,,Clear,310,2013-07-18 08:56:00
5:56 AM,73.9,71.1,91,30.12,6.0,Calm,Calm,-,N/A,,Clear,0,2013-07-18 09:56:00
6:56 AM,73.9,71.1,91,30.13,4.0,Calm,Calm,-,N/A,,Clear,0,2013-07-18 10:56:00
7:56 AM,77.0,72.0,84,30.14,7.0,Calm,Calm,-,N/A,,Clear,0,2013-07-18 11:56:00
8:56 AM,81.0,73.0,77,30.14,8.0,Calm,Calm,-,N/A,,Clear,0,2013-07-18 12:56:00
9:56 AM,84.9,75.0,72,30.14,8.0,NNW,3.5,-,N/A,,Clear,330,2013-07-18 13:56:00
10:56 AM,87.1,73.0,63,30.14,8.0,Variable,3.5,-,N/A,,Partly Cloudy,0,2013-07-18 14:56:00
11:56 AM,90.0,70.0,52,30.14,9.0,Variable,3.5,-,N/A,,Clear,0,2013-07-18 15:56:00
12:56 PM,91.0,73.9,57,30.13,8.0,Variable,4.6,-,N/A,,Partly Cloudy,0,2013-07-18 16:56:00
1:56 PM,90.0,70.0,52,30.12,8.0,NNW,3.5,-,N/A,,Partly Cloudy,330,2013-07-18 17:56:00
2:56 PM,89.1,72.0,57,30.09,8.0,Calm,Calm,-,N/A,,Mostly Cloudy,0,2013-07-18 18:56:00
3:56 PM,88.0,75.0,65,30.08,7.0,NE,4.6,-,N/A,,Overcast,50,2013-07-18 19:56:00
4:10 PM,88.0,75.0,65,30.10,7.0,NE,5.8,-,N/A,Thunderstorm,Mostly Cloudy,50,2013-07-18 20:10:00
4:27 PM,86.0,72.0,63,30.09,7.0,Calm,Calm,-,N/A,,Partly Cloudy,0,2013-07-18 20:27:00
4:56 PM,93.0,72.0,50,30.06,8.0,NNW,3.5,-,N/A,,Clear,340,2013-07-18 20:56:00
5:56 PM,91.0,71.1,52,30.04,8.0,Calm,Calm,-,N/A,,Partly Cloudy,0,2013-07-18 21:56:00
6:56 PM,82.0,73.9,76,30.05,7.0,WSW,3.5,-,N/A,,Clear,240,2013-07-18 22:56:00
7:56 PM,80.1,75.0,85,30.07,7.0,Variable,3.5,-,N/A,,Clear,0,2013-07-18 23:56:00
8:56 PM,79.0,73.9,84,30.08,9.0,Calm,Calm,-,N/A,,Clear,0,2013-07-19 00:56:00
9:56 PM,78.1,73.0,84,30.09,8.0,Calm,Calm,-,N/A,,Clear,0,2013-07-19 01:56:00
10:56 PM,77.0,73.0,88,30.10,7.0,Calm,Calm,-,N/A,,Clear,0,2013-07-19 02:56:00
11:56 PM,75.9,73.0,91,30.11,6.0,Calm,Calm,-,N/A,,Clear,0,2013-07-19 03:56:00